COSMOS 2278 (23087 NORAD) Tracking and Keplerian Element Data

This shows tracking and keplerian element data for the satellite.

Feedback or suggestion? Click here.




ElementValue
Catalog23087
NameCOSMOS 2278
Epoch Orbit43106
Epoch Day15.9331059
Epoch Year2022
RAAN100.5924
Inclination71.0534
Eccentricity0.0009381
Argument of Perigee195.7242
Mean Anonmoly164.359
Mean Motion14.13840516
Decay Rate-2.38E-06
L11 23087U 94023A 22015.93310590 -.00000238 00000+0 -10080-3 0 9994
L22 23087 71.0534 100.5924 0009381 195.7242 164.3590 14.13840516431069

Live tracking and technical data element details for COSMOS 2278 (NORAD 23087). COSMOS 2278 can be tracked NOW for your location showing map with azimuth and elevation plus other details from your city location.

Track the satellite on the map from your city or location and see movement details for azimuth, elevation, latitude, longitude, range, height, and movement on the map or in text.







IsCatalogInMostPopularTable: catalog: 23087, numindb: 300
Update: records affected: 1



GetName: 23087 COSMOS 2278

Hit Count: updated at: Mon, 17 Jan 2022 01:10:44 GMT